Wind_Speed
6 6 5 4 5 5 5 5 4 4 5 5 5 5 5 6 6 6 6 6 7 8 8 8 9 9 9 9 9 8 8 9 9 9 9 9 9 9 9 9 9 9 9
6 7 6 5 6 5 6 6 5 5 5 5 5 5 6 7 7 7 7 7 7 7 8 8 9 10 10 10 10 10 9 9 10 10 10 10 10 10 9 9 9 10 10
7 7 6 6 6 6 7 6 6 6 6 5 5 5 6 7 6 7 7 7 6 6 7 8 9 10 10 11 11 11 10 10 11 11 11 11 11 11 11 10 10 10 10
8 8 8 7 7 7 7 7 7 6 7 6 6 5 6 6 5 6 6 7 7 6 7 8 8 8 9 10 10 11 11 11 11 11 12 11 11 11 12 12 12 12 11
9 9 8 8 8 7 7 7 8 7 7 7 7 7 6 6 6 5 6 7 7 7 7 7 8 7 8 9 10 10 11 12 12 11 11 11 10 11 12 12 12 12 12
9 9 9 9 8 8 8 9 8 8 8 8 8 8 8 7 6 6 6 6 6 7 8 8 8 7 8 9 9 10 10 10 11 12 11 11 11 11 12 12 12 12 13
9 10 10 9 9 8 9 10 10 9 8 8 8 8 8 8 8 8 8 8 7 7 8 8 8 8 9 9 9 10 11 10 11 11 12 12 12 11 12 13 13 13 13
9 10 10 9 9 9 9 10 10 9 9 9 8 8 9 9 9 9 9 8 8 8 8 8 9 9 10 10 10 10 10 11 11 12 13 13 13 13 12 12 13 13 13
10 9 10 10 10 10 10 11 11 11 10 10 9 9 9 10 10 10 10 9 9 9 9 9 10 11 11 11 12 13 13 13 12 12 13 14 12 13 13 13 12 12 12
12 10 11 11 10 11 11 12 12 12 11 11 10 10 11 11 11 11 10 10 10 10 10 11 11 11 13 13 13 14 14 14 14 14 14 14 14 14 13 13 13 13 13
12 12 12 12 12 12 13 13 13 13 13 13 13 12 12 12 12 12 12 12 12 12 12 12 12 13 13 14 14 15 15 15 16 16 16 16 16 15 15 15 14 14 14
13 13 12 13 13 14 14 14 14 14 14 15 15 15 14 14 14 14 13 14 14 15 15 14 15 15 14 15 16 17 18 17 17 17 17 17 17 17 17 18 16 16 15
14 14 14 14 15 15 15 15 16 16 16 17 17 17 17 16 16 16 17 17 17 17 17 17 17 17 16 16 17 18 19 20 19 19 19 19 19 18 19 19 18 17 16
14 15 15 16 17 17 17 17 17 17 18 18 18 19 19 19 19 19 19 19 19 19 19 19 19 18 18 18 18 18 18 19 20 21 21 21 21 21 20 19 19 19 19
15 15 16 17 18 18 18 18 19 19 19 19 20 20 21 21 21 21 21 21 21 21 22 22 22 22 21 20 19 20 20 21 22 22 22 23 22 22 22 21 21 22 21
17 17 17 18 18 19 19 20 20 21 21 21 22 22 22 22 23 23 23 24 24 24 24 24 24 24 24 23 23 22 22 22 22 23 23 23 23 23 24 24 24 24 24
19 19 19 19 20 21 21 22 23 23 23 23 24 24 25 25 25 25 25 25 25 26 26 26 25 25 25 25 25 26 26 26 24 24 24 24 24 25 25 25 26 26 26
21 21 21 21 22 22 23 24 24 25 25 25 26 26 26 26 26 26 26 26 27 27 27 27 27 28 27 27 27 28 28 27 26 25 25 25 26 26 28 28 28 27 27
22 22 23 23 24 24 25 26 26 26 26 27 27 27 27 27 28 28 28 28 29 29 29 29 29 29 28 28 28 29 29 28 28 27 27 27 27 27 28 29 29 29 29
24 24 24 25 26 26 27 27 27 27 28 28 28 28 28 28 29 29 30 30 30 30 31 30 30 30 30 30 30 29 29 30 29 29 28 28 28 28 28 29 30 30 30
26 26 26 27 28 27 28 28 28 28 28 29 29 29 29 30 30 30 30 30 31 31 31 31 31 31 31 31 31 31 31 30 30 30 30 30 30 30 29 30 30 30 31
27 28 28 28 29 29 29 29 28 29 29 29 29 30 30 30 30 31 31 31 31 31 32 32 32 32 32 32 32 32 32 32 31 30 31 30 30 30 29 30 31 31 31
29 30 30 30 30 30 29 29 29 29 29 30 30 30 30 30 31 31 32 32 32 32 33 33 33 33 32 33 33 33 33 33 32 31 31 30 30 30 30 30 30 31 31
30 31 30 31 30 29 29 29 29 29 29 30 30 30 31 31 31 31 32 32 33 33 34 35 34 34 34 34 34 34 33 33 32 31 31 31 31 31 30 30 30 31 32
30 30 30 30 29 29 29 30 31 30 30 30 31 31 31 32 32 32 33 33 34 34 34 35 35 35 35 34 34 34 34 33 32 32 32 31 31 31 31 31 31 33 34
30 30 30 30 30 30 30 31 31 31 32 32 32 33 33 33 33 33 34 34 34 34 33 33 33 33 34 33 33 33 33 32 32 31 31 31 30 31 31 30 31 32 33
Wind_Direction
0 356 351 346 343 338 334 334 332 329 332 327 315 307 303 294 291 292 292 286 274 262 255 252 245 246 245 241 239 236 237 243 249 248 249 254 259 263 262 254 248 242 241
354 356 357 354 354 351 346 342 339 334 334 330 322 311 310 308 292 287 285 282 278 270 263 255 248 249 249 243 241 242 242 244 246 249 252 255 255 262 262 251 247 247 248
357 354 351 349 348 350 350 349 349 351 340 335 334 331 322 318 305 290 284 281 272 269 266 265 262 255 249 245 243 243 245 248 247 249 253 255 258 261 257 250 247 251 249
351 353 350 346 346 345 345 345 344 343 344 341 336 332 331 324 316 302 292 281 277 272 273 275 269 259 249 246 250 249 248 251 254 254 256 258 263 259 254 250 247 249 249
348 350 349 345 344 343 341 342 339 336 337 340 339 337 334 330 324 311 298 293 284 278 277 279 265 256 257 253 254 254 255 256 256 256 256 256 259 258 254 251 249 248 248
347 347 345 341 339 336 335 336 336 332 330 328 329 330 327 329 328 323 314 307 297 288 283 283 273 257 259 259 258 258 257 259 258 255 254 254 258 257 255 253 252 251 249
344 343 342 339 335 333 333 333 331 329 324 323 322 322 320 319 312 312 313 311 305 296 291 285 276 265 260 262 264 259 255 259 261 259 254 256 257 255 258 260 259 257 254
337 338 338 338 336 333 333 333 328 326 324 322 323 320 319 318 313 314 314 310 305 298 291 286 279 274 268 266 261 260 258 261 262 262 260 261 257 256 259 263 262 261 262
329 332 335 335 334 333 332 331 330 327 324 322 319 316 314 314 313 309 310 303 298 297 293 288 285 281 274 272 267 265 264 266 265 267 264 263 262 261 260 261 261 259 263
328 323 323 324 325 328 327 325 326 324 321 320 317 313 311 311 310 306 301 299 296 293 290 289 288 284 278 274 273 271 270 268 268 268 265 263 260 260 259 261 260 259 262
318 316 315 316 316 319 321 320 319 318 316 314 312 310 307 305 303 303 300 297 295 294 293 290 288 286 283 277 274 271 269 267 267 267 265 264 260 258 260 262 261 261 264
314 311 310 312 312 313 314 315 313 311 310 310 308 307 304 300 298 296 297 297 295 294 293 292 289 285 283 279 275 271 269 267 267 268 268 267 263 261 262 262 261 260 263
313 312 311 310 310 310 310 310 310 309 306 305 304 303 301 299 297 295 293 292 292 293 292 291 289 289 286 284 279 274 272 269 268 268 267 266 264 263 263 264 259 258 261
311 311 311 311 310 309 308 307 307 307 305 304 302 301 300 298 295 294 293 292 291 290 290 289 287 288 289 287 284 279 274 270 269 268 267 266 265 265 265 264 262 259 260
310 310 309 309 311 311 309 307 306 304 303 302 301 301 300 298 296 293 291 291 290 288 287 286 285 285 287 287 285 280 277 273 270 269 266 265 264 263 263 262 263 262 261
307 307 308 308 307 307 307 306 305 303 301 300 299 299 298 297 296 294 290 289 288 287 286 285 284 283 284 284 283 280 277 276 273 270 268 267 264 263 262 261 261 263 261
308 306 305 306 307 306 304 304 304 302 300 299 298 297 295 295 294 293 292 290 287 286 285 284 284 282 282 281 279 279 278 276 273 271 270 269 266 262 261 261 262 262 260
310 307 306 305 305 305 305 305 305 303 301 299 298 297 295 294 292 291 290 290 288 286 284 282 282 281 280 279 278 278 278 277 274 272 272 272 269 265 263 261 260 260 260
310 307 306 306 304 304 304 304 303 302 301 299 297 296 295 293 291 290 290 289 287 285 283 282 280 280 279 279 279 278 279 278 275 273 272 271 269 265 264 262 259 259 260
309 307 305 304 304 303 303 303 301 301 300 299 297 296 295 293 292 291 289 288 287 285 283 282 279 278 277 277 278 278 278 277 277 275 273 270 269 267 264 262 259 259 260
308 309 306 305 306 305 304 302 301 299 299 298 297 296 295 294 293 291 290 289 287 286 284 282 280 278 276 276 276 276 277 277 276 275 273 270 268 267 265 264 261 260 259
306 308 309 307 306 305 304 303 301 300 300 299 298 296 296 294 293 292 290 289 287 286 284 282 280 279 277 276 275 275 275 275 274 273 273 270 268 265 264 264 262 260 258
306 307 308 306 304 304 304 303 302 301 301 300 299 297 296 295 294 294 292 290 288 286 285 283 282 281 279 276 275 274 274 275 275 274 273 272 269 266 264 261 259 257 255
305 306 307 307 305 304 304 303 302 301 300 301 300 299 298 296 294 293 291 290 289 287 285 282 280 279 278 276 276 274 274 274 273 273 273 272 269 265 264 262 261 259 258
304 305 306 306 305 305 304 303 302 300 301 301 301 300 299 297 296 294 292 290 289 287 285 283 281 279 277 276 275 274 273 273 272 272 272 271 269 265 264 262 261 261 260
303 304 305 306 305 304 303 302 302 301 302 302 301 300 300 299 298 297 294 292 290 288 286 284 282 279 277 275 273 273 272 272 271 271 271 270 270 266 263 262 261 259 258
Height
5876 5875 5875 5874 5874 5873 5873 5872 5872 5871 5870 5870 5869 5869 5868 5867 5867 5867 5868 5868 5868 5868 5869 5869 5870 5871 5872 5873 5874 5875 5876 5877 5878 5878 5879 5880 5880 5881 5881 5881 5882 5883 5883
5877 5876 5875 5875 5874 5873 5873 5872 5871 5870 5870 5869 5869 5868 5867 5866 5865 5866 5866 5866 5866 5867 5867 5867 5868 5868 5869 5870 5872 5873 5874 5875 5875 5876 5877 5877 5878 5878 5878 5879 5879 5880 5881
5877 5876 5875 5874 5873 5873 5872 5871 5870 5870 5869 5868 5868 5867 5866 5865 5864 5863 5864 5864 5865 5865 5865 5865 5865 5865 5866 5867 5869 5870 5871 5872 5873 5873 5874 5875 5875 5875 5875 5876 5877 5877 5878
5877 5876 5875 5874 5873 5872 5872 5871 5870 5869 5869 5868 5867 5866 5865 5864 5863 5862 5863 5863 5863 5863 5863 5863 5862 5862 5863 5865 5866 5867 5868 5869 5870 5870 5871 5872 5872 5872 5873 5873 5874 5875 5875
5877 5876 5875 5874 5873 5872 5871 5870 5869 5868 5868 5867 5866 5865 5864 5863 5862 5861 5861 5861 5861 5862 5861 5861 5861 5861 5862 5863 5864 5865 5865 5866 5867 5868 5868 5869 5869 5869 5870 5870 5871 5872 5872
5877 5876 5875 5874 5873 5872 5871 5870 5869 5867 5866 5866 5865 5864 5863 5862 5861 5861 5860 5860 5860 5860 5860 5860 5859 5860 5860 5861 5861 5862 5863 5863 5864 5865 5865 5866 5866 5866 5867 5867 5868 5868 5869
5876 5875 5874 5873 5872 5871 5870 5869 5868 5867 5865 5865 5864 5863 5862 5861 5860 5859 5859 5859 5859 5859 5859 5858 5858 5858 5859 5859 5860 5860 5860 5861 5861 5862 5862 5863 5863 5863 5864 5864 5864 5865 5866
5875 5874 5873 5872 5871 5870 5869 5868 5867 5866 5864 5863 5862 5861 5860 5860 5859 5857 5857 5857 5857 5857 5857 5857 5856 5856 5857 5857 5857 5857 5858 5858 5859 5859 5859 5859 5860 5860 5860 5860 5860 5861 5862
5874 5873 5872 5871 5870 5869 5867 5866 5865 5864 5863 5861 5860 5859 5858 5858 5857 5856 5856 5855 5855 5855 5854 5854 5854 5854 5854 5854 5854 5855 5855 5855 5855 5856 5856 5856 5857 5857 5857 5857 5857 5858 5859
5873 5872 5871 5870 5869 5867 5866 5865 5863 5862 5861 5860 5859 5858 5857 5856 5855 5855 5854 5853 5852 5852 5851 5851 5851 5851 5851 5851 5851 5851 5852 5852 5852 5852 5853 5853 5854 5854 5854 5854 5854 5855 5856
5871 5870 5869 5868 5867 5866 5864 5863 5862 5860 5859 5858 5857 5856 5854 5853 5852 5852 5851 5851 5849 5849 5848 5848 5848 5848 5847 5847 5848 5847 5847 5848 5848 5848 5849 5850 5850 5850 5851 5851 5852 5852 5853
5869 5868 5867 5866 5865 5863 5862 5861 5859 5858 5857 5855 5854 5853 5852 5851 5850 5849 5848 5847 5846 5845 5845 5844 5844 5843 5843 5843 5843 5843 5843 5843 5844 5844 5845 5845 5845 5846 5847 5848 5848 5849 5849
5867 5866 5864 5863 5862 5861 5859 5858 5856 5855 5854 5852 5851 5850 5848 5847 5846 5845 5844 5844 5843 5842 5841 5840 5839 5838 5838 5838 5838 5838 5838 5838 5839 5839 5840 5840 5841 5842 5842 5843 5844 5844 5845
5864 5863 5862 5860 5859 5857 5856 5854 5853 5852 5850 5849 5847 5846 5844 5843 5842 5841 5840 5839 5838 5838 5837 5836 5835 5834 5833 5833 5833 5833 5833 5833 5833 5834 5834 5835 5835 5836 5837 5837 5838 5839 5840
5861 5860 5858 5857 5855 5854 5852 5851 5849 5847 5846 5844 5843 5841 5840 5838 5837 5836 5835 5834 5833 5832 5831 5831 5830 5829 5829 5827 5828 5827 5827 5827 5827 5828 5828 5829 5829 5830 5830 5831 5832 5833 5834
5858 5856 5854 5853 5851 5849 5848 5846 5844 5842 5841 5839 5837 5836 5834 5832 5831 5829 5829 5828 5827 5826 5825 5824 5824 5823 5822 5822 5822 5821 5821 5820 5820 5821 5822 5822 5823 5823 5824 5824 5826 5828 5829
5854 5852 5850 5849 5847 5845 5843 5841 5839 5837 5835 5833 5831 5830 5828 5826 5825 5823 5822 5821 5820 5819 5818 5818 5817 5816 5816 5815 5815 5814 5814 5813 5814 5814 5814 5815 5816 5816 5817 5818 5819 5820 5821
5850 5848 5846 5844 5842 5840 5837 5835 5833 5831 5829 5827 5825 5823 5821 5819 5818 5816 5815 5814 5812 5811 5811 5811 5810 5809 5809 5808 5807 5806 5806 5806 5806 5806 5807 5807 5808 5808 5809 5810 5811 5812 5813
5845 5843 5841 5838 5836 5834 5832 5829 5827 5825 5822 5820 5818 5816 5814 5812 5810 5809 5807 5806 5805 5803 5802 5802 5802 5801 5801 5800 5799 5799 5798 5798 5798 5798 5798 5799 5799 5800 5801 5802 5803 5804 5805
5840 5838 5835 5833 5830 5828 5825 5823 5820 5817 5815 5813 5810 5808 5806 5804 5803 5801 5799 5797 5796 5795 5794 5793 5793 5792 5792 5792 5791 5790 5790 5789 5789 5790 5790 5790 5790 5791 5792 5793 5794 5795 5796
5834 5832 5829 5826 5823 5821 5818 5816 5813 5810 5808 5805 5803 5801 5798 5796 5794 5792 5791 5789 5787 5786 5784 5783 5783 5783 5783 5782 5782 5781 5780 5780 5780 5780 5780 5781 5781 5782 5782 5783 5784 5785 5786
5828 5825 5823 5820 5817 5814 5811 5808 5805 5803 5800 5797 5795 5792 5790 5788 5786 5784 5782 5780 5778 5777 5775 5774 5773 5773 5773 5772 5771 5771 5770 5770 5770 5770 5770 5771 5771 5772 5773 5773 5774 5775 5776
5821 5818 5816 5813 5810 5806 5803 5801 5797 5795 5792 5790 5787 5784 5781 5779 5777 5775 5772 5771 5769 5767 5765 5764 5763 5762 5762 5761 5761 5761 5760 5760 5760 5760 5759 5760 5761 5761 5762 5763 5764 5765 5766
5815 5811 5808 5805 5802 5799 5796 5793 5790 5787 5785 5782 5779 5776 5773 5771 5768 5766 5763 5761 5759 5756 5754 5753 5753 5752 5751 5750 5750 5749 5749 5750 5750 5749 5749 5750 5750 5750 5752 5753 5754 5755 5756
5807 5804 5801 5797 5795 5792 5789 5786 5783 5780 5777 5773 5770 5767 5764 5761 5759 5756 5754 5751 5748 5746 5744 5742 5741 5741 5740 5739 5739 5739 5739 5739 5739 5740 5739 5739 5739 5740 5741 5743 5744 5745 5746
5800 5796 5793 5790 5787 5784 5781 5778 5774 5771 5768 5765 5762 5758 5755 5752 5749 5745 5743 5740 5738 5735 5733 5731 5730 5730 5729 5728 5728 5728 5728 5728 5728 5729 5729 5729 5729 5729 5731 5732 5733 5734 5735